Rundle Island Observation History
Time Wind Speed Temp Pressure Rel. Hum Rain
05/10:00pm SSE 19-21 kts 20.3°c 1024.2 hPa n/a n/a
05/09:30pm SE 18-21 kts 20.6°c 1024.3 hPa n/a n/a
05/09:00pm SE 18-22 kts 20.4°c 1024.4 hPa n/a n/a
05/08:30pm SE 18-20 kts 20.6°c 1024.4 hPa n/a n/a
05/08:00pm SE 18-22 kts 20.6°c 1024.2 hPa n/a n/a
05/07:30pm ESE 15-19 kts 20.3°c 1023.9 hPa n/a n/a
05/07:00pm ESE 23-28 kts 19.6°c 1023.4 hPa n/a n/a
05/06:30pm SE 19-22 kts 20.3°c 1023.4 hPa n/a n/a
05/06:00pm SE 19-21 kts 20.3°c 1023.2 hPa n/a n/a
05/05:30pm SE 20-23 kts 20.4°c 1022.8 hPa n/a n/a
05/05:00pm SE 20-22 kts 20.6°c 1022.7 hPa n/a n/a
05/04:30pm SE 20-23 kts 20.5°c 1022.6 hPa n/a n/a
05/04:00pm SE 21-24 kts 20.4°c 1022.5 hPa n/a n/a
05/03:30pm SE 19-21 kts 20.4°c 1022.4 hPa n/a n/a
05/03:00pm SE 18-22 kts 20.2°c 1022.6 hPa n/a n/a
05/02:30pm SE 19-21 kts 20.0°c 1022.8 hPa n/a n/a
05/02:00pm SE 18-21 kts 20.0°c 1022.9 hPa n/a n/a
05/01:30pm SE 20-24 kts 19.8°c 1023.2 hPa n/a n/a
05/01:00pm ESE 16-23 kts 18.5°c 1023.7 hPa n/a n/a
05/12:47pm ESE 24-31 kts 18.8°c 1023.8 hPa n/a n/a
05/12:30pm SE 21-26 kts 19.9°c 1023.9 hPa n/a n/a
05/12:20pm SE 16-27 kts 19.5°c 1024.0 hPa n/a n/a
05/12:00pm SE 20-24 kts 17.6°c 1024.7 hPa n/a n/a
05/11:30am SSE 20-25 kts 19.3°c 1024.8 hPa n/a n/a
05/11:00am SE 22-26 kts 19.2°c 1025.1 hPa n/a n/a
05/10:30am SSE 20-23 kts 18.9°c 1025.3 hPa n/a n/a
05/10:00am SSE 22-25 kts 18.7°c 1025.3 hPa n/a n/a
05/09:30am SSE 22-26 kts 18.7°c 1025.4 hPa n/a n/a
05/09:00am SSE 21-24 kts 18.6°c 1025.3 hPa n/a n/a
05/08:30am SSE 22-27 kts 18.4°c 1024.8 hPa n/a n/a
05/08:00am SSE 23-27 kts 18.4°c 1024.3 hPa n/a n/a
05/07:30am SSE 24-28 kts 18.1°c 1023.8 hPa n/a n/a
05/07:00am SSE 24-27 kts 18.3°c 1023.5 hPa n/a n/a
05/06:30am S 24-28 kts 18.0°c 1023.3 hPa n/a n/a
05/06:00am S 24-27 kts 18.1°c 1023.0 hPa n/a n/a
05/05:30am SSE 23-27 kts 18.3°c 1023.1 hPa n/a n/a
05/05:00am S 21-25 kts 18.2°c 1022.6 hPa n/a n/a
05/04:30am S 20-23 kts 18.6°c 1022.7 hPa n/a n/a
05/04:00am SSE 22-27 kts 18.7°c 1022.8 hPa n/a n/a
05/03:30am SSE 23-26 kts 19.0°c 1022.8 hPa n/a n/a
05/03:00am SE 24-28 kts 19.0°c 1023.1 hPa n/a n/a
05/02:30am SE 22-26 kts 19.2°c 1023.4 hPa n/a n/a
05/02:00am SSE 21-25 kts 19.2°c 1023.6 hPa n/a n/a
05/01:30am SE 24-27 kts 19.2°c 1023.8 hPa n/a n/a
05/01:00am SE 25-28 kts 19.2°c 1023.9 hPa n/a n/a
05/12:30am SSE 24-27 kts 19.4°c 1024.1 hPa n/a n/a
05/12:00am SE 23-26 kts 19.6°c 1024.5 hPa n/a n/a
Time Wind Speed Temp Pressure Rel. Hum Rain
04/11:30pm SE 23-27 kts 19.2°c 1024.7 hPa n/a n/a
04/11:00pm SE 23-27 kts 19.1°c 1025.1 hPa n/a n/a
04/10:30pm SSE 24-29 kts 19.4°c 1025.4 hPa n/a n/a
04/10:00pm SE 24-27 kts 19.4°c 1025.4 hPa n/a n/a
04/09:30pm SE 27-32 kts 19.9°c 1025.0 hPa n/a n/a
04/09:00pm SE 27-32 kts 20.2°c 1025.0 hPa n/a n/a
04/08:30pm SE 28-33 kts 20.2°c 1025.2 hPa n/a n/a
04/08:00pm SE 28-32 kts 20.2°c 1025.0 hPa n/a n/a
04/07:30pm SE 29-32 kts 20.3°c 1024.7 hPa n/a n/a
04/07:00pm SE 29-33 kts 20.4°c 1024.2 hPa n/a n/a
04/06:30pm SE 27-33 kts 20.1°c 1024.0 hPa n/a n/a
04/06:00pm SE 28-34 kts 20.2°c 1023.7 hPa n/a n/a
04/05:30pm SE 26-32 kts 20.3°c 1023.4 hPa n/a n/a
04/05:00pm SE 26-31 kts 20.5°c 1023.2 hPa n/a n/a
04/04:30pm SE 25-30 kts 20.5°c 1022.9 hPa n/a n/a
04/04:00pm SE 24-28 kts 20.4°c 1022.7 hPa n/a n/a
04/03:30pm SE 25-31 kts 20.6°c 1022.6 hPa n/a n/a
04/03:00pm SE 25-29 kts 20.6°c 1022.6 hPa n/a n/a
04/02:30pm SE 26-30 kts 20.6°c 1022.5 hPa n/a n/a
04/02:00pm SE 26-30 kts 20.7°c 1022.8 hPa n/a n/a
04/01:30pm SE 24-28 kts 20.8°c 1023.0 hPa n/a n/a
04/01:00pm SE 24-28 kts 21.2°c 1023.2 hPa n/a n/a
04/12:30pm SE 21-25 kts 21.2°c 1023.3 hPa n/a n/a
04/12:00pm SSE 21-26 kts 20.9°c 1023.7 hPa n/a n/a
04/11:30am SSE 20-23 kts 20.5°c 1024.0 hPa n/a n/a
04/11:00am SSE 18-21 kts 19.6°c 1024.3 hPa n/a n/a
04/10:30am SSE 18-21 kts 19.3°c 1024.2 hPa n/a n/a
04/10:00am SSE 19-23 kts 18.9°c 1024.2 hPa n/a n/a
04/09:30am SSE 20-23 kts 18.8°c 1024.2 hPa n/a n/a
04/09:00am SSE 21-25 kts 18.2°c 1023.9 hPa n/a n/a
04/08:30am SSE 20-23 kts 18.6°c 1023.8 hPa n/a n/a
04/08:00am SSE 19-23 kts 18.4°c 1023.6 hPa n/a n/a
04/07:30am S 18-21 kts 18.1°c 1023.2 hPa n/a n/a
04/07:00am S 20-23 kts 18.1°c 1022.9 hPa n/a n/a
04/06:30am SSE 19-22 kts 17.7°c 1022.6 hPa n/a n/a
04/06:00am SSE 18-21 kts 17.5°c 1022.4 hPa n/a n/a
04/05:30am S 18-22 kts 17.3°c 1021.9 hPa n/a n/a
04/05:00am S 20-23 kts 17.4°c 1021.8 hPa n/a n/a
04/04:30am S 21-23 kts 17.2°c 1021.6 hPa n/a n/a
04/04:00am S 21-24 kts 17.1°c 1021.6 hPa n/a n/a
04/03:30am S 21-24 kts 17.2°c 1022.0 hPa n/a n/a
04/03:00am S 20-24 kts 17.5°c 1022.1 hPa n/a n/a
04/02:30am S 21-24 kts 17.8°c 1022.0 hPa n/a n/a
04/02:00am SSE 22-25 kts 18.0°c 1022.3 hPa n/a n/a
04/01:30am SSE 25-28 kts 18.3°c 1022.3 hPa n/a n/a
04/01:00am SSE 21-27 kts 18.7°c 1022.3 hPa n/a n/a
04/12:30am S 18-21 kts 18.7°c 1022.2 hPa n/a n/a
04/12:00am S 17-19 kts 18.5°c 1022.4 hPa n/a n/a
Time Wind Speed Temp Pressure Rel. Hum Rain
03/11:30pm SSW 12-13 kts 18.3°c 1022.3 hPa n/a n/a
03/11:00pm S 10-12 kts 19.1°c 1022.3 hPa n/a n/a
03/10:30pm SSW 6-7 kts 18.8°c 1022.6 hPa n/a n/a
03/10:00pm SSW 5-6 kts 18.9°c 1022.6 hPa n/a n/a
03/09:30pm SSW 3-4 kts 19.1°c 1022.5 hPa n/a n/a
03/09:00pm SSW 2-3 kts 19.3°c 1022.4 hPa n/a n/a
03/08:30pm CALM 0 kts 19.5°c 1021.9 hPa n/a n/a
03/08:00pm NW 1-2 kts 19.7°c 1021.7 hPa n/a n/a
03/07:30pm N 1-2 kts 19.7°c 1021.6 hPa n/a n/a
03/07:00pm N 4-5 kts 19.7°c 1021.2 hPa n/a n/a
03/06:30pm N 4-5 kts 19.7°c 1020.9 hPa n/a n/a
03/06:00pm NE 4-6 kts 19.4°c 1020.6 hPa n/a n/a
03/05:30pm NE 5-6 kts 19.4°c 1020.3 hPa n/a n/a
03/05:00pm NNE 5-6 kts 19.8°c 1020.1 hPa n/a n/a
03/04:30pm NNE 4-6 kts 20.4°c 1019.9 hPa n/a n/a
03/04:00pm N 4-6 kts 19.9°c 1019.6 hPa n/a n/a
03/03:30pm N 6-7 kts 19.8°c 1019.5 hPa n/a n/a
03/03:00pm N 7-8 kts 19.9°c 1019.5 hPa n/a n/a
03/02:30pm N 6-8 kts 20.0°c 1019.5 hPa n/a n/a
03/02:00pm ESE 4-5 kts 21.4°c 1019.6 hPa n/a n/a
03/01:30pm S 5-6 kts 20.9°c 1019.8 hPa n/a n/a
03/01:00pm S 5-7 kts 20.7°c 1020.1 hPa n/a n/a
03/12:30pm S 6-9 kts 20.0°c 1020.5 hPa n/a n/a
03/12:00pm S 9-11 kts 19.6°c 1021.1 hPa n/a n/a
03/11:30am S 10-12 kts 18.8°c 1021.6 hPa n/a n/a
03/11:00am S 12-15 kts 17.8°c 1021.9 hPa n/a n/a
03/10:30am SSW 15-18 kts 17.1°c 1022.2 hPa n/a n/a
03/10:00am SSW 17-21 kts 16.2°c 1022.4 hPa n/a n/a
03/09:30am S 20-23 kts 15.9°c 1022.5 hPa n/a n/a
03/09:00am SSW 19-22 kts 15.2°c 1022.7 hPa n/a n/a
03/08:30am SSW 19-23 kts 15.1°c 1022.9 hPa n/a n/a
03/08:00am SSW 17-21 kts 14.7°c 1022.6 hPa n/a n/a
03/07:30am SSW 18-24 kts 14.6°c 1022.4 hPa n/a n/a
03/07:00am SSW 19-23 kts 14.6°c 1021.9 hPa n/a n/a
03/06:30am SSW 20-24 kts 14.6°c 1021.4 hPa n/a n/a
03/06:00am SSW 21-26 kts 14.9°c 1021.1 hPa n/a n/a
03/05:30am S 20-25 kts 15.1°c 1020.8 hPa n/a n/a
03/05:00am SSW 19-22 kts 15.1°c 1020.7 hPa n/a n/a
03/04:30am SSW 18-21 kts 15.2°c 1020.5 hPa n/a n/a
03/04:00am SSW 17-20 kts 15.2°c 1020.4 hPa n/a n/a
03/03:30am SSW 20-23 kts 15.6°c 1020.4 hPa n/a n/a
03/03:00am SSW 18-21 kts 15.9°c 1020.5 hPa n/a n/a
03/02:30am SSW 17-20 kts 16.1°c 1020.6 hPa n/a n/a
03/02:00am SSW 18-22 kts 16.4°c 1020.7 hPa n/a n/a
03/01:30am SSW 18-21 kts 16.8°c 1020.9 hPa n/a n/a
03/01:00am SSW 19-22 kts 17.4°c 1021.1 hPa n/a n/a
03/12:30am SSW 21-24 kts 17.6°c 1021.2 hPa n/a n/a
03/12:00am SSW 20-23 kts 17.9°c 1021.3 hPa n/a n/a